Overview Statistics Trail Chart Weather Telemetry Raw packets
 

This is the latest recevied weather packets stored in our database for station/object KI5RAB. If no packets are shown the sender has not sent any weather packets the latest 10 day(s).

<< 5 6 7 8 9 10 11 >>
Time Temp. Humidity Pressure Rain* Wind** Luminosity Snow
1788623816 31.11° C 72% 1018.2 hPa 0 mm - 610 W/m² -
1788623516 30° C 76% 1018.4 hPa 0 mm - 587 W/m² -
1788623210 30.56° C 75% 1018.4 hPa 0 mm - 201 W/m² -
1788622905 30° C 76% 1018.4 hPa 0 mm - 262 W/m² -
1788622601 30.56° C 76% 1018.1 hPa 0 mm - 305 W/m² -
1788622296 28.89° C 80% 1018.3 hPa 0 mm - 500 W/m² -
1788621991 28.89° C 81% 1018.1 hPa 0 mm - 187 W/m² -
1788621685 28.89° C 81% 1018.2 hPa 0 mm - 202 W/m² -
1788621380 28.33° C 82% 1018.1 hPa 0 mm - 143 W/m² -
1788621076 28.89° C 82% 1018.1 hPa 0 mm - 114 W/m² -
1788620771 28.89° C 82% 1018.1 hPa 0 mm - 139 W/m² -
1788620469 28.89° C 82% 1018.1 hPa 0 mm - 245 W/m² -
1788620169 28.89° C 82% 1018.1 hPa 0 mm - 206 W/m² -
1788619868 28.89° C 82% 1018.1 hPa 0 mm - 221 W/m² -
1788619563 28.89° C 82% 1018.1 hPa 0 mm - 185 W/m² -
1788619261 28.33° C 83% 1018.3 hPa 0 mm - 209 W/m² -
1788618956 28.33° C 83% 1018 hPa 0 mm - 152 W/m² -
1788618651 28.33° C 83% 1018.2 hPa 0 mm - 106 W/m² -
1788618349 27.78° C 84% 1018 hPa 0 mm - 204 W/m² -
1788618044 27.78° C 84% 1017.8 hPa 0 mm - 157 W/m² -
1788617739 27.78° C 85% 1017.8 hPa 0 mm - 123 W/m² -
1788617435 27.78° C 85% 1018 hPa 0 mm - 95 W/m² -
1788617130 27.78° C 85% 1017.9 hPa 0 mm - 102 W/m² -
1788616829 27.78° C 85% 1017.9 hPa 0 mm - 110 W/m² -
1788616524 28.33° C 84% 1017.9 hPa 0 mm - 121 W/m² -

* Rain latest hour (hover to see other rain measurements)
** Current wind speed in m/s (hover to see current wind gust speed)